When you browse on this site, cookies collect data to enhance your experience and personalize the content and advertising you see.
Visit our Privacy Policy to learn more. By continuing to use the site, you agree to this use of cookies and data.
  • In Austria
  • List of Countries
  • For 7 days
  • Water Temperature
  • Weather Map
  • News
  • Weather Widgets
  • user-avatar
    Login

    Hourly Weather Paratebueno

    Today, 23 September, Monday

    Time Temperature Precipitation Wind Pressure Humidity
    00:00 +24°C° 0.1 mm 1 mps 739 mmHg 82%
    01:00 +24°C° 0 mm 1 mps 738 mmHg 80%
    02:00 +24°C° 0 mm 1 mps 738 mmHg 79%
    03:00 +24°C° 0 mm 1 mps 738 mmHg 78%
    04:00 +24°C° 0 mm 1 mps 738 mmHg 76%
    05:00 +24°C° 0.1 mm 1 mps 739 mmHg 77%
    06:00 +25°C° 0.1 mm 1 mps 739 mmHg 78%
    07:00 +24°C° 0 mm 0 mps 740 mmHg 77%
    08:00 +25°C° 0.1 mm 0 mps 740 mmHg 73%
    09:00 +27°C° 0.1 mm 0 mps 740 mmHg 69%
    10:00 +29°C° 0.1 mm 0 mps 740 mmHg 65%
    11:00 +31°C° 0 mm 1 mps 739 mmHg 64%
    12:00 +32°C° 0 mm 1 mps 738 mmHg 63%
    13:00 +34°C° 0 mm 2 mps 737 mmHg 62%
    14:00 +32°C° 0.4 mm 2 mps 736 mmHg 67%
    15:00 +31°C° 0.4 mm 1 mps 736 mmHg 72%
    16:00 +31°C° 0.4 mm 1 mps 736 mmHg 78%
    17:00 +29°C° 0.4 mm 1 mps 736 mmHg 82%
    18:00 +28°C° 0.4 mm 1 mps 736 mmHg 86%
    19:00 +26°C° 0.4 mm 1 mps 737 mmHg 90%
    20:00 +25°C° 0.2 mm 1 mps 737 mmHg 90%
    21:00 +25°C° 0.2 mm 1 mps 738 mmHg 90%
    22:00 +24°C° 0.2 mm 1 mps 739 mmHg 90%
    23:00 +24°C° 0.8 mm 1 mps 738 mmHg 91%

    Tomorrow, 24 September, Tuesday

    Time Temperature Precipitation Wind Pressure Humidity
    00:00 +24°C° 0.8 mm 1 mps 738 mmHg 91%
    01:00 +24°C° 0.8 mm 1 mps 738 mmHg 92%
    02:00 +24°C° 0.9 mm 1 mps 738 mmHg 92%
    03:00 +23°C° 0.9 mm 1 mps 738 mmHg 93%
    04:00 +23°C° 0.9 mm 1 mps 738 mmHg 94%
    05:00 +23°C° 0.3 mm 1 mps 738 mmHg 93%
    06:00 +24°C° 0.3 mm 1 mps 739 mmHg 92%
    07:00 +24°C° 0.3 mm 1 mps 739 mmHg 92%
    08:00 +25°C° 0 mm 1 mps 739 mmHg 89%
    09:00 +26°C° 0 mm 1 mps 740 mmHg 86%
    10:00 +27°C° 0 mm 1 mps 740 mmHg 84%
    11:00 +29°C° 0 mm 1 mps 739 mmHg 78%
    12:00 +30°C° 0 mm 1 mps 738 mmHg 72%
    13:00 +31°C° 0 mm 2 mps 738 mmHg 66%
    14:00 +31°C° 0.1 mm 2 mps 737 mmHg 69%
    15:00 +31°C° 0.1 mm 1 mps 737 mmHg 71%
    16:00 +30°C° 0.1 mm 1 mps 737 mmHg 74%
    17:00 +29°C° 0.3 mm 1 mps 737 mmHg 79%
    18:00 +27°C° 0.3 mm 1 mps 737 mmHg 85%
    19:00 +24°C° 0.3 mm 0 mps 738 mmHg 90%
    20:00 +23°C° 0.1 mm 0 mps 738 mmHg 90%
    21:00 +25°C° 0.1 mm 1 mps 739 mmHg 89%
    22:00 +25°C° 0.1 mm 1 mps 739 mmHg 89%
    23:00 +25°C° 0.2 mm 1 mps 739 mmHg 89%

    Day after tomorrow, 25 September, Wednesday

    Time Temperature Precipitation Wind Pressure Humidity
    00:00 +25°C° 0.2 mm 1 mps 738 mmHg 89%
    01:00 +25°C° 0.2 mm 1 mps 738 mmHg 89%
    02:00 +24°C° 0.4 mm 1 mps 738 mmHg 89%
    03:00 +24°C° 0.4 mm 1 mps 738 mmHg 90%
    04:00 +24°C° 0.4 mm 1 mps 738 mmHg 90%
    05:00 +24°C° 0.3 mm 1 mps 739 mmHg 90%
    06:00 +25°C° 0.3 mm 1 mps 739 mmHg 90%
    07:00 +25°C° 0.3 mm 1 mps 740 mmHg 90%
    08:00 +26°C° 0.1 mm 1 mps 740 mmHg 86%
    09:00 +26°C° 0.1 mm 0 mps 740 mmHg 81%
    10:00 +28°C° 0.1 mm 0 mps 741 mmHg 77%
    11:00 +27°C° 1 mm 0 mps 739 mmHg 79%
    12:00 +29°C° 1 mm 1 mps 738 mmHg 82%
    13:00 +29°C° 1 mm 1 mps 737 mmHg 84%
    14:00 +29°C° 0.1 mm 1 mps 737 mmHg 80%
    15:00 +30°C° 0.1 mm 1 mps 736 mmHg 77%
    16:00 +30°C° 0.1 mm 1 mps 736 mmHg 73%
    17:00 +29°C° 0.6 mm 1 mps 736 mmHg 79%
    18:00 +27°C° 0.6 mm 1 mps 737 mmHg 85%
    19:00 +25°C° 0.6 mm 1 mps 737 mmHg 90%
    20:00 +25°C° 1.6 mm 1 mps 738 mmHg 91%
    21:00 +25°C° 1.6 mm 1 mps 738 mmHg 91%
    22:00 +25°C° 1.6 mm 1 mps 739 mmHg 92%
    23:00 +24°C° 1.4 mm 1 mps 739 mmHg 93%

    26 September, Thursday

    Time Temperature Precipitation Wind Pressure Humidity
    00:00 +24°C° 1.4 mm 1 mps 739 mmHg 94%
    01:00 +24°C° 1.4 mm 1 mps 738 mmHg 95%
    02:00 +24°C° 0.4 mm 1 mps 738 mmHg 95%
    03:00 +24°C° 0.4 mm 1 mps 738 mmHg 95%
    04:00 +24°C° 0.4 mm 1 mps 738 mmHg 94%
    05:00 +24°C° 0 mm 1 mps 738 mmHg 93%
    06:00 +24°C° 0 mm 1 mps 739 mmHg 91%
    07:00 +25°C° 0 mm 1 mps 739 mmHg 90%
    08:00 +24°C° 0 mm 0 mps 739 mmHg 87%
    09:00 +25°C° 0 mm 0 mps 739 mmHg 85%
    10:00 +26°C° 0 mm 0 mps 739 mmHg 82%
    11:00 +25°C° 0.3 mm 0 mps 739 mmHg 84%
    12:00 +25°C° 0.3 mm 0 mps 738 mmHg 86%
    13:00 +25°C° 0.3 mm 0 mps 737 mmHg 87%
    14:00 +27°C° 0.1 mm 1 mps 737 mmHg 87%
    15:00 +26°C° 0.1 mm 1 mps 736 mmHg 86%
    16:00 +26°C° 0.1 mm 1 mps 736 mmHg 86%
    17:00 +25°C° 0 mm 1 mps 736 mmHg 86%
    18:00 +25°C° 0 mm 1 mps 737 mmHg 86%
    19:00 +24°C° 0 mm 1 mps 737 mmHg 85%
    20:00 +24°C° 0 mm 1 mps 737 mmHg 84%
    21:00 +24°C° 0 mm 1 mps 738 mmHg 84%
    22:00 +24°C° 0 mm 1 mps 738 mmHg 83%
    23:00 +24°C° 0 mm 1 mps 738 mmHg 82%

    27 September, Friday

    Time Temperature Precipitation Wind Pressure Humidity
    00:00 +22°C° 0 mm 0 mps 738 mmHg 81%
    01:00 +22°C° 0 mm 0 mps 737 mmHg 80%
    02:00 +22°C° 0 mm 0 mps 737 mmHg 82%
    03:00 +21°C° 0 mm 0 mps 737 mmHg 83%
    04:00 +21°C° 0 mm 0 mps 737 mmHg 84%
    05:00 +22°C° 0 mm 0 mps 738 mmHg 83%
    06:00 +23°C° 0 mm 0 mps 738 mmHg 82%
    07:00 +23°C° 0 mm 0 mps 739 mmHg 81%
    08:00 +25°C° 0 mm 0 mps 739 mmHg 76%
    09:00 +27°C° 0 mm 0 mps 739 mmHg 71%
    10:00 +31°C° 0 mm 1 mps 740 mmHg 66%
    11:00 +32°C° 0.1 mm 1 mps 739 mmHg 64%
    12:00 +32°C° 0.1 mm 1 mps 738 mmHg 62%
    13:00 +33°C° 0.1 mm 1 mps 737 mmHg 60%
    14:00 +32°C° 0.2 mm 1 mps 736 mmHg 63%
    15:00 +32°C° 0.2 mm 1 mps 736 mmHg 65%
    16:00 +32°C° 0.2 mm 1 mps 735 mmHg 68%
    17:00 +30°C° 0.2 mm 1 mps 736 mmHg 73%
    18:00 +28°C° 0.2 mm 1 mps 736 mmHg 78%
    19:00 +26°C° 0.2 mm 1 mps 736 mmHg 82%
    20:00 +26°C° 0 mm 1 mps 737 mmHg 83%
    21:00 +25°C° 0 mm 1 mps 737 mmHg 84%
    22:00 +25°C° 0 mm 1 mps 737 mmHg 85%
    23:00 +25°C° 0 mm 1 mps 737 mmHg 84%

    28 September, Saturday

    Time Temperature Precipitation Wind Pressure Humidity
    00:00 +25°C° 0 mm 1 mps 737 mmHg 82%
    01:00 +24°C° 0 mm 1 mps 737 mmHg 81%
    02:00 +24°C° 0 mm 1 mps 737 mmHg 80%
    03:00 +24°C° 0 mm 1 mps 737 mmHg 78%
    04:00 +24°C° 0 mm 1 mps 736 mmHg 77%
    05:00 +25°C° 0 mm 1 mps 737 mmHg 77%
    06:00 +25°C° 0 mm 1 mps 738 mmHg 77%
    07:00 +26°C° 0 mm 1 mps 738 mmHg 77%
    08:00 +28°C° 0.2 mm 1 mps 738 mmHg 74%
    09:00 +30°C° 0.2 mm 1 mps 738 mmHg 71%
    10:00 +32°C° 0.2 mm 1 mps 738 mmHg 68%
    11:00 +32°C° 0.8 mm 1 mps 738 mmHg 69%
    12:00 +32°C° 0.8 mm 1 mps 737 mmHg 70%
    13:00 +32°C° 0.8 mm 2 mps 736 mmHg 72%
    14:00 +31°C° 1.2 mm 1 mps 735 mmHg 76%
    15:00 +30°C° 1.2 mm 1 mps 735 mmHg 81%
    16:00 +30°C° 1.2 mm 1 mps 735 mmHg 85%
    17:00 +28°C° 0.4 mm 1 mps 735 mmHg 87%
    18:00 +27°C° 0.4 mm 1 mps 735 mmHg 89%
    19:00 +26°C° 0.4 mm 1 mps 736 mmHg 90%
    20:00 +25°C° 0 mm 1 mps 736 mmHg 90%
    21:00 +25°C° 0 mm 1 mps 736 mmHg 90%
    22:00 +25°C° 0 mm 1 mps 737 mmHg 89%
    23:00 +24°C° 0 mm 1 mps 737 mmHg 89%
    Show more